This is the latest recevied weather packets stored in our database for station/object EA7OC-10. If no packets are shown the sender has not sent any weather packets the latest 10 day(s).
| Time | Temp. | Humidity | Pressure | Rain* | Wind** | Luminosity | Snow |
|---|---|---|---|---|---|---|---|
| 1787380650 | 27.22° C | 35% | 1015.3 hPa | - | - | - | - |
| 1787379749 | 23.89° C | 35% | 1015.2 hPa | - | - | - | - |
| 1787378848 | 21.67° C | 34% | 1014.9 hPa | - | - | - | - |
| 1787377948 | 21.11° C | 33% | 1014.7 hPa | - | - | - | - |
| 1787377048 | 21.11° C | 33% | 1014.4 hPa | - | - | - | - |
| 1787376148 | 21.11° C | 33% | 1014.3 hPa | - | - | - | - |
| 1787375248 | 21.11° C | 32% | 1014.2 hPa | - | - | - | - |
| 1787374348 | 21.11° C | 33% | 1014.2 hPa | - | - | - | - |
| 1787373448 | 21.11° C | 32% | 1014.1 hPa | - | - | - | - |
| 1787372548 | 21.67° C | 33% | 1014.1 hPa | - | - | - | - |
| 1787371648 | 21.67° C | 32% | 1014.1 hPa | - | - | - | - |
| 1787370747 | 21.67° C | 33% | 1014.2 hPa | - | - | - | - |
| 1787369847 | 22.22° C | 32% | 1014.1 hPa | - | - | - | - |
| 1787368947 | 22.22° C | 32% | 1014.2 hPa | - | - | - | - |
| 1787368047 | 22.78° C | 32% | 1014.2 hPa | - | - | - | - |
| 1787367147 | 22.78° C | 32% | 1014.1 hPa | - | - | - | - |
| 1787366247 | 22.78° C | 32% | 1014.2 hPa | - | - | - | - |
| 1787365347 | 22.78° C | 32% | 1014.2 hPa | - | - | - | - |
| 1787364447 | 23.33° C | 32% | 1014.1 hPa | - | - | - | - |
| 1787363547 | 23.33° C | 32% | 1014.1 hPa | - | - | - | - |
| 1787362647 | 23.89° C | 31% | 1014.2 hPa | - | - | - | - |
| 1787361746 | 23.89° C | 31% | 1014.2 hPa | - | - | - | - |
| 1787360846 | 24.44° C | 32% | 1014.3 hPa | - | - | - | - |
| 1787359946 | 24.44° C | 31% | 1014.3 hPa | - | - | - | - |
| 1787359046 | 24.44° C | 31% | 1014.4 hPa | - | - | - | - |
* Rain since midnight (hover to see other rain measurements)
** Current wind speed in m/s (hover to see current wind gust speed)